Hourly Data Report for September 06, 2017

All times are specified in Local Standard Time (LST). Add 1 hour to adjust for Daylight Saving Time where and when it is observed.

PENTICTON A
BRITISH COLUMBIA

49°27'45.000" N
119°36'08.000" W
344.40 m
1126146
71889
YYF

Download Data

Hourly Data (September 2017)
Hourly Data Report for September 6, 2017
Temp Definition
°C
Dew Point Temp Definition
°C
Rel Hum Definition
%
Wind Dir Definition
10's deg

Wind Spd Definition
km/h
Visibility Definition
km
Stn Press Definition
kPa
Hmdx Definition


Wind Chill Definition


Weather Definition


TIME
00:00 Legend Double Dagger 20.3 15.2 72 17 15 12.9 97.55     LegendNANA
01:00 Legend Double Dagger 20.4 13.1 63 32 8 12.9 97.65     Mainly Clear
02:00 Legend Double Dagger 19.4 15.0 75 32 9 12.9 97.58     LegendNANA
03:00 Legend Double Dagger 20.1 13.0 63 18 9 12.9 97.60     LegendNANA
04:00 Legend Double Dagger 18.9 12.5 66 6 4 12.9 97.63     Mainly Clear
05:00 Legend Double Dagger 17.9 12.2 69 14 7 12.9 97.61     LegendNANA
06:00 Legend Double Dagger 18.8 13.4 71 13 3 8.1 97.58     Smoke
07:00 Legend Double Dagger 18.7 13.2 70 5 6 6.4 97.62     Smoke
08:00 Legend Double Dagger 19.7 14.1 70 2 10 6.4 97.62     Smoke
09:00 Legend Double Dagger 21.7 14.2 62 35 7 4.8 97.63 25   Smoke
10:00 Legend Double Dagger 23.0 14.6 58 4 6 4.8 97.60 27   Smoke
11:00 Legend Double Dagger 24.9 11.9 44 1 7 4.8 97.53 27   Smoke
12:00 Legend Double Dagger 25.2 13.7 48 35 9 4.8 97.47 28   Smoke
13:00 Legend Double Dagger 25.4 14.1 49 36 9 4.8 97.40 29   Smoke
14:00 Legend Double Dagger 25.4 13.6 47 36 8 6.4 97.30 29   Smoke
15:00 Legend Double Dagger 25.7 13.9 48 36 7 6.4 97.23 29   Smoke
16:00 Legend Double Dagger 25.6 13.9 48 36 7 6.4 97.17 29   Smoke
17:00 Legend Double Dagger 23.7 13.6 53 34 9 6.4 97.14 27   Smoke
18:00 Legend Double Dagger 21.2 13.3 60 1 8 6.4 97.12     Smoke
19:00 Legend Double Dagger 19.7 12.9 64 5 3 6.4 97.14     Smoke
20:00 Legend Double Dagger 16.8 11.6 72 36 1 6.4 97.18     Smoke
21:00 Legend Double Dagger 17.6 11.7 68 36 2 6.4 97.18     Smoke
22:00 Legend Double Dagger 15.6 10.7 72 35 4 6.4 97.21     Smoke
23:00 Legend Double Dagger 15.7 10.9 73 36 3 6.4 97.21     Smoke

Notes on Data Quality.

Legend

  • E = Estimated
  • M = Missing
  • NA = Not Available
  • ‡ = Partner data that is not subject to review by the National Climate Archives
Date modified: